TimeMDT,TemperatureF,Dew PointF,Humidity,Sea Level PressureIn,VisibilityMPH,Wind Direction,Wind SpeedMPH,Gust SpeedMPH,PrecipitationIn,Events,Conditions,WindDirDegrees,DateUTC
12:56 AM,21.0,16.0,81,30.46,10.0,NW,5.8,-,N/A,,Clear,310,2012-10-06 06:56:00
1:56 AM,21.0,16.0,81,30.47,10.0,West,4.6,-,N/A,,Clear,280,2012-10-06 07:56:00
2:56 AM,21.0,16.0,81,30.47,10.0,Calm,Calm,-,N/A,,Scattered Clouds,0,2012-10-06 08:56:00
3:56 AM,21.0,17.1,85,30.46,10.0,West,3.5,-,N/A,,Scattered Clouds,270,2012-10-06 09:56:00
4:56 AM,21.0,18.0,88,30.45,10.0,West,4.6,-,N/A,,Scattered Clouds,260,2012-10-06 10:56:00
5:56 AM,21.0,17.1,85,30.47,10.0,West,5.8,-,N/A,,Mostly Cloudy,280,2012-10-06 11:56:00
6:56 AM,19.0,15.1,85,30.48,10.0,West,6.9,-,N/A,,Clear,270,2012-10-06 12:56:00
7:56 AM,21.9,18.0,85,30.48,10.0,West,5.8,-,N/A,,Clear,260,2012-10-06 13:56:00
8:56 AM,28.9,21.9,75,30.47,10.0,West,5.8,-,N/A,,Clear,270,2012-10-06 14:56:00
9:56 AM,34.0,19.9,56,30.46,10.0,WNW,8.1,-,N/A,,Clear,290,2012-10-06 15:56:00
10:56 AM,37.9,19.0,47,30.44,10.0,West,6.9,-,N/A,,Clear,270,2012-10-06 16:56:00
11:56 AM,42.1,14.0,32,30.41,10.0,West,11.5,-,N/A,,Clear,270,2012-10-06 17:56:00
12:56 PM,43.0,12.0,28,30.38,10.0,West,10.4,17.3,N/A,,Clear,260,2012-10-06 18:56:00
1:56 PM,44.1,14.0,30,30.35,10.0,West,8.1,-,N/A,,Clear,280,2012-10-06 19:56:00
2:56 PM,45.0,16.0,31,30.32,10.0,Variable,6.9,17.3,N/A,,Clear,0,2012-10-06 20:56:00
3:56 PM,46.0,16.0,30,30.29,10.0,West,10.4,-,N/A,,Clear,270,2012-10-06 21:56:00
4:56 PM,45.0,14.0,29,30.27,10.0,West,12.7,-,N/A,,Clear,260,2012-10-06 22:56:00
5:56 PM,41.0,17.1,38,30.26,10.0,WSW,6.9,-,N/A,,Clear,250,2012-10-06 23:56:00
6:56 PM,33.1,19.0,56,30.27,10.0,WSW,3.5,-,N/A,,Clear,240,2012-10-07 00:56:00
7:56 PM,30.9,19.0,61,30.26,10.0,WSW,6.9,-,N/A,,Clear,250,2012-10-07 01:56:00
8:56 PM,30.0,19.0,64,30.23,10.0,Calm,Calm,-,N/A,,Clear,0,2012-10-07 02:56:00
9:56 PM,28.9,19.0,67,30.20,10.0,SSW,3.5,-,N/A,,Clear,210,2012-10-07 03:56:00
10:56 PM,25.0,19.0,78,30.18,10.0,SSW,8.1,-,N/A,,Clear,200,2012-10-07 04:56:00
11:56 PM,28.0,19.9,72,30.14,10.0,SSW,10.4,-,N/A,,Clear,200,2012-10-07 05:56:00